Location: Glenbow
(51.1592°N, 114.3828°W)
Time: 19:47:50
(UTC+00:00)

Envisat - Pass Details

Date: 03 December 2021
Orbit: 764 x 766 km, 98.2° (Epoch: 26 January)

Event Time Altitude Azimuth Distance (km) Brightness Sun altitude
Rises 00:45:26 0° 201° (SSW) 3,222 6.9 -10.8°
Reaches altitude 10° 00:48:09 10° 215° (SW) 2,301 6.4 -11.2°
Maximum altitude 00:52:12 24° 269° (W) 1,556 5.5 -11.8°
Drops below altitude 10° 00:56:19 10° 322° (NW) 2,316 5.7 -12.4°
Sets 00:59:04 0° 337° (NNW) 3,247 6.3 -12.8°
